Powrót do katalogu

COSMOS 970 DEB

AktywnyLEO
NORAD 64993·DEBRIS·🇷🇺 Russia

Wystrzelony Dec 21, 1977 z Baikonur Cosmodrome

Loading…

Następne Przeloty (najbliższe 24 godziny)

TLE

ŚwieżeSource: Space-Track

Epoka: Sep 14, 2026, 13:51 UTC

1 64993U 77121DE  26257.57731547  .00000104  00000-0  18642-3 0  9999
2 64993  65.5961 282.9796 0151727 191.1012 252.4020 13.72783015641841

Śledź COSMOS 970 DEB w czasie rzeczywistym z AllMySat

Download on the App Store